K5GHS-1 Weather Reports


Display with metric or nautical units.
time (UTC)temp
F
wind
direction
speed
MPH
gust
MPH
rain 1hr
in
rain 24hr
in
rain mn
in
humidity
%
barometer
mb
20260510102048 64 84 0.0 3.0 0.00 0.26 0.26 96 1011.2
20260510101545 64 71 0.0 2.0 0.00 0.26 0.26 96 1011.1
20260510101044 64 90 0.0 2.0 0.00 0.26 0.26 96 1011.4
20260510100539 64 87 3.0 3.0 0.00 0.26 0.26 96 1012.0
20260510100037 64 88 0.0 5.0 0.00 0.26 0.26 95 1011.8
20260510095533 64 75 0.0 1.0 0.07 0.26 0.26 95 1011.7
20260510095032 64 59 2.0 2.0 0.05 0.25 0.25 95 1012.2
20260510094527 64 84 1.0 3.0 0.19 0.25 0.25 95 1011.6
20260510094023 64 91 1.0 3.0 0.26 0.24 0.24 94 1011.7
20260510093519 65 61 2.0 3.0 0.12 0.22 0.22 94 1011.9
20260510093016 65 83 1.0 3.0 0.24 0.20 0.20 93 1012.0
20260510092513 65 68 0.0 9.0 0.78 0.20 0.20 92 1011.6
20260510092012 65 65 3.0 8.0 0.85 0.15 0.15 90 1010.7
20260510091509 66 161 1.0 5.0 0.40 0.07 0.07 88 1011.9
20260510091005 68 72 2.0 6.0 0.00 0.00 0.00 85 1012.3
20260510090503 68 276 2.0 2.0 0.00 0.00 0.00 83 1012.7
20260510085958 69 87 1.0 5.0 0.00 0.00 0.00 82 1012.7
20260510085453 69 38 2.0 7.0 0.00 0.00 0.00 81 1012.3
20260510084949 69 61 0.0 6.0 0.00 0.00 0.00 82 1012.2
20260510084446 70 73 0.0 3.0 0.00 0.00 0.00 86 1012.1
20260510083943 71 64 0.0 3.0 0.00 0.00 0.00 88 1011.8
20260510083439 71 61 0.0 0.0 0.00 0.00 0.00 90 1010.9
20260510082935 71 69 0.0 0.0 0.00 0.00 0.00 91 1011.0
20260510082433 71 90 1.0 2.0 0.00 0.00 0.00 91 1010.9
20260510081932 73 83 0.0 1.0 0.00 0.00 0.00 93 1010.5
20260510081428 73 80 0.0 0.0 0.00 0.00 0.00 93 1010.4
20260510080924 73 70 0.0 5.0 0.00 0.00 0.00 93 1010.6
20260510080423 73 99 1.0 1.0 0.00 0.00 0.00 93 1010.6
20260510075920 73 52 0.0 1.0 0.00 0.00 0.00 93 1010.6
20260510075418 73 78 0.0 1.0 0.00 0.00 0.00 92 1010.6
20260510074914 73 72 0.0 0.0 0.00 0.00 0.00 92 1010.3
20260510074412 73 70 0.0 0.0 0.00 0.00 0.00 92 1010.1
20260510073908 73 85 0.0 2.0 0.00 0.00 0.00 92 1009.3
20260510073403 73 85 0.0 2.0 0.00 0.00 0.00 92 1009.2
20260510072900 73 79 1.0 2.0 0.00 0.00 0.00 91 1009.4
20260510072357 74 87 0.0 2.0 0.00 0.00 0.00 91 1009.1
20260510071853 74 76 0.0 3.0 0.00 0.00 0.00 91 1008.7
20260510071349 74 100 2.0 3.0 0.00 0.00 0.00 90 1008.7
20260510070848 74 112 3.0 5.0 0.00 0.00 0.00 89 1008.7
20260510070344 75 93 2.0 5.0 0.00 0.00 0.00 89 1008.4
20260510065839 75 96 1.0 3.0 0.00 0.00 0.00 88 1008.6
20260510065336 75 127 3.0 3.0 0.00 0.00 0.00 88 1008.6
20260510064833 75 97 2.0 3.0 0.00 0.00 0.00 88 1008.9
20260510064331 75 92 1.0 2.0 0.00 0.00 0.00 88 1009.8
20260510063826 75 81 0.0 5.0 0.00 0.00 0.00 88 1010.4
20260510063323 75 79 1.0 2.0 0.00 0.00 0.00 89 1010.6
20260510062820 75 70 0.0 1.0 0.00 0.00 0.00 89 1011.0
20260510062315 75 67 0.0 2.0 0.00 0.00 0.00 89 1011.0
20260510061810 75 77 0.0 2.0 0.00 0.00 0.00 89 1011.0
20260510061308 74 93 1.0 1.0 0.00 0.00 0.00 89 1010.7
20260510060804 75 72 0.0 1.0 0.00 0.00 0.00 89 1010.7
20260510060301 75 65 1.0 2.0 0.00 0.00 0.00 88 1010.7
20260510055758 75 69 0.0 1.0 0.00 0.00 0.00 88 1010.6
20260510055256 75 73 0.0 1.0 0.00 0.00 0.00 88 1010.0
20260510054756 75 103 1.0 2.0 0.00 0.00 0.00 88 1009.2
20260510054252 75 79 0.0 0.0 0.00 0.00 0.00 88 1008.7
20260510053751 75 83 0.0 0.0 0.00 0.00 0.00 87 1008.6
20260510053242 75 85 0.0 1.0 0.00 0.00 0.00 87 1008.1
20260510052738 75 88 2.0 3.0 0.00 0.00 0.00 87 1008.2
20260510052235 75 78 0.0 2.0 0.00 0.00 0.00 87 1008.3
20260510051730 75 85 1.0 2.0 0.00 0.00 0.00 86 1008.0
20260510051227 75 97 1.0 2.0 0.00 0.00 0.00 86 1007.8
20260510050724 75 111 3.0 3.0 0.00 0.00 0.00 85 1007.7
20260510050222 75 61 1.0 3.0 0.00 0.00 0.00 85 1007.7
20260510045718 75 93 1.0 2.0 0.00 0.00 0.00 84 1007.8
20260510045215 75 90 0.0 1.0 0.00 0.00 0.00 83 1007.6
20260510044711 75 101 2.0 3.0 0.00 0.00 0.00 83 1007.6
20260510044210 74 81 0.0 1.0 0.00 0.00 0.00 82 1007.7
20260510043704 74 87 1.0 1.0 0.00 0.00 0.00 81 1007.3
20260510043201 74 91 1.0 2.0 0.00 0.00 0.00 81 1007.4
20260510042658 74 73 0.0 1.0 0.00 0.00 0.00 80 1007.3
20260510042154 74 78 1.0 2.0 0.00 0.00 0.00 80 1007.3
20260510041652 74 85 0.0 1.0 0.00 0.00 0.00 80 1007.5
20260510041149 74 91 0.0 2.0 0.00 0.00 0.00 79 1007.5
20260510040646 75 85 0.0 0.0 0.00 0.00 0.00 79 1007.3
20260510040143 75 84 1.0 2.0 0.00 0.00 0.00 79 1007.4
20260510035638 75 85 0.0 1.0 0.00 0.00 0.00 79 1007.3
20260510035133 75 85 0.0 2.0 0.00 0.00 0.00 79 1007.5
20260510034630 75 78 0.0 1.0 0.00 0.00 0.00 79 1007.7
20260510034127 75 68 2.0 2.0 0.00 0.00 0.00 78 1007.6
20260510033624 75 81 1.0 1.0 0.00 0.00 0.00 78 1007.5
20260510033121 75 82 0.0 2.0 0.00 0.00 0.00 78 1007.5
20260510032618 76 84 1.0 2.0 0.00 0.00 0.00 77 1007.7
20260510032113 76 90 0.0 0.0 0.00 0.00 0.00 76 1007.6
20260510031608 76 85 0.0 1.0 0.00 0.00 0.00 75 1007.6
20260510031105 77 87 0.0 1.0 0.00 0.00 0.00 74 1007.6
20260510030600 77 89 1.0 1.0 0.00 0.00 0.00 74 1007.7
20260510030057 77 82 0.0 2.0 0.00 0.00 0.00 73 1007.4
20260510025554 77 87 1.0 2.0 0.00 0.00 0.00 73 1007.5
20260510025052 77 90 1.0 2.0 0.00 0.00 0.00 73 1007.7
20260510024548 77 104 1.0 1.0 0.00 0.00 0.00 72 1007.4
20260510024045 78 82 1.0 2.0 0.00 0.00 0.00 72 1007.6
20260510023541 78 83 0.0 2.0 0.00 0.00 0.00 71 1007.8
20260510023039 78 95 1.0 3.0 0.00 0.00 0.00 70 1007.6
20260510022538 78 82 0.0 3.0 0.00 0.00 0.00 70 1007.7
20260510022032 78 59 3.0 3.0 0.00 0.00 0.00 70 1007.4
20260510021529 78 92 1.0 2.0 0.00 0.00 0.00 70 1007.5
20260510021026 78 87 1.0 2.0 0.00 0.00 0.00 69 1007.5
20260510020521 78 94 1.0 3.0 0.00 0.00 0.00 69 1007.4
20260510020017 79 84 0.0 1.0 0.00 0.00 0.00 69 1007.1
20260510015512 79 83 0.0 3.0 0.00 0.00 0.00 69 1007.2
20260510015008 79 85 0.0 3.0 0.00 0.00 0.00 68 1007.2
20260510014505 79 85 1.0 2.0 0.00 0.00 0.00 68 1007.1
20260510014002 79 95 1.0 1.0 0.00 0.00 0.00 68 1007.2
20260510013456 79 77 1.0 2.0 0.00 0.00 0.00 67 1007.0
20260510012953 80 60 1.0 2.0 0.00 0.00 0.00 67 1007.1
20260510012447 80 84 1.0 1.0 0.00 0.00 0.00 66 1007.1
20260510011943 80 79 0.0 1.0 0.00 0.00 0.00 66 1006.9
20260510011437 80 87 0.0 2.0 0.00 0.00 0.00 65 1006.7
20260510010934 81 79 1.0 3.0 0.00 0.00 0.00 65 1006.5
20260510010432 81 90 0.0 3.0 0.00 0.00 0.00 65 1006.8
20260510005928 81 82 1.0 1.0 0.00 0.00 0.00 64 1006.6
20260510005424 81 86 0.0 2.0 0.00 0.00 0.00 63 1006.3
20260510004921 82 82 0.0 2.0 0.00 0.00 0.00 63 1006.6
20260510004419 82 84 0.0 2.0 0.00 0.00 0.00 62 1006.5
20260510003917 82 91 2.0 2.0 0.00 0.00 0.00 61 1006.4
20260510003414 82 57 1.0 1.0 0.00 0.00 0.00 60 1006.6
20260510002913 83 82 2.0 3.0 0.00 0.00 0.00 59 1006.5
20260510002410 83 93 1.0 5.0 0.00 0.00 0.00 57 1006.6
20260510001906 83 81 3.0 5.0 0.00 0.00 0.00 56 1006.4
20260510001404 83 107 3.0 5.0 0.00 0.00 0.00 56 1006.5
20260510000901 83 91 2.0 2.0 0.00 0.00 0.00 54 1006.6
20260510000357 84 115 2.0 2.0 0.00 0.00 0.00 54 1006.5
20260509235854 84 90 0.0 2.0 0.00 0.00 0.00 54 1006.7
20260509235350 84 79 1.0 3.0 0.00 0.00 0.00 55 1006.6
20260509234847 84 87 0.0 0.0 0.00 0.00 0.00 57 1006.7
20260509234344 84 106 2.0 2.0 0.00 0.00 0.00 56 1006.7
20260509233842 84 85 0.0 1.0 0.00 0.00 0.00 56 1006.6
20260509233339 85 88 1.0 3.0 0.00 0.00 0.00 54 1006.8
20260509232835 85 68 1.0 2.0 0.00 0.00 0.00 54 1006.9
20260509232333 85 55 2.0 5.0 0.00 0.00 0.00 54 1006.8
20260509231829 86 91 1.0 2.0 0.00 0.00 0.00 54 1006.8
20260509231326 85 72 1.0 2.0 0.00 0.00 0.00 54 1006.8
20260509230824 86 66 3.0 5.0 0.00 0.00 0.00 54 1006.8
20260509230320 86 104 1.0 3.0 0.00 0.00 0.00 54 1006.4
20260509225815 86 74 4.0 5.0 0.00 0.00 0.00 54 1006.7
20260509225312 86 127 2.0 3.0 0.00 0.00 0.00 55 1006.6
20260509224808 86 85 0.0 3.0 0.00 0.00 0.00 56 1006.9
20260509224305 87 86 1.0 2.0 0.00 0.00 0.00 55 1006.6
20260509223801 87 117 0.0 1.0 0.00 0.00 0.00 55 1006.8
20260509223259 86 60 3.0 3.0 0.00 0.00 0.00 55 1006.9
20260509222755 86 95 0.0 3.0 0.00 0.00 0.00 57 1006.7
20260509222250 86 108 1.0 1.0 0.00 0.00 0.00 57 1006.7
20260509221747 86 88 0.0 2.0 0.00 0.00 0.00 58 1006.5
20260509221244 86 141 1.0 5.0 0.00 0.00 0.00 58 1006.5
20260509220739 86 121 2.0 6.0 0.00 0.00 0.00 59 1006.4
20260509220236 86 87 2.0 5.0 0.00 0.00 0.00 59 1006.7
20260509215731 86 95 2.0 5.0 0.00 0.00 0.00 59 1006.5
20260509215228 85 149 1.0 2.0 0.00 0.00 0.00 60 1006.6
20260509214725 86 89 1.0 1.0 0.00 0.00 0.00 60 1006.7
20260509214222 87 175 2.0 3.0 0.00 0.00 0.00 59 1006.7
20260509213719 87 66 0.0 1.0 0.00 0.00 0.00 60 1006.7
20260509213214 87 77 1.0 3.0 0.00 0.00 0.00 60 1006.7
20260509212712 87 90 2.0 5.0 0.00 0.00 0.00 58 1007.0
20260509212209 89 113 1.0 3.0 0.00 0.00 0.00 57 1006.9
20260509211705 89 129 1.0 5.0 0.00 0.00 0.00 56 1007.0
20260509211201 87 78 0.0 1.0 0.00 0.00 0.00 59 1007.1
20260509210658 86 103 2.0 6.0 0.00 0.00 0.00 61 1007.1
20260509210150 86 100 1.0 5.0 0.00 0.00 0.00 59 1007.4
20260509205645 87 97 1.0 3.0 0.00 0.00 0.00 58 1007.2
20260509205144 87 109 2.0 2.0 0.00 0.00 0.00 59 1007.3
20260509204641 86 130 2.0 3.0 0.00 0.00 0.00 60 1007.4
20260509204137 85 78 1.0 3.0 0.00 0.00 0.00 62 1007.3
20260509203633 86 79 2.0 5.0 0.00 0.00 0.00 61 1007.3
20260509203132 86 114 2.0 2.0 0.00 0.00 0.00 60 1007.5
20260509202632 87 61 4.0 5.0 0.00 0.00 0.00 61 1007.4
20260509202127 86 99 3.0 3.0 0.00 0.00 0.00 61 1007.6
20260509201622 86 90 1.0 3.0 0.00 0.00 0.00 62 1007.4
20260509201120 86 101 2.0 3.0 0.00 0.00 0.00 62 1007.6
20260509200615 86 59 2.0 5.0 0.00 0.00 0.00 62 1007.6
20260509200111 85 74 0.0 1.0 0.00 0.00 0.00 63 1007.5
20260509195606 86 95 2.0 2.0 0.00 0.00 0.00 62 1007.7
20260509195056 86 44 2.0 5.0 0.00 0.00 0.00 62 1008.0
20260509194555 86 71 0.0 3.0 0.00 0.00 0.00 62 1007.7
20260509194054 87 111 2.0 5.0 0.00 0.00 0.00 60 1007.8
20260509193549 88 63 1.0 5.0 0.00 0.00 0.00 58 1007.8
20260509193045 88 83 1.0 2.0 0.00 0.00 0.00 56 1007.7
20260509192542 88 67 1.0 1.0 0.00 0.00 0.00 59 1008.2
20260509192037 88 352 0.0 2.0 0.00 0.00 0.00 59 1008.2
20260509191531 87 71 0.0 1.0 0.00 0.00 0.00 62 1008.2
20260509191027 86 109 0.0 2.0 0.00 0.00 0.00 60 1008.2
20260509190525 87 63 0.0 2.0 0.00 0.00 0.00 61 1008.2
20260509190023 88 76 0.0 1.0 0.00 0.00 0.00 60 1008.3
20260509185520 87 62 0.0 2.0 0.00 0.00 0.00 58 1008.2
20260509185016 87 74 0.0 0.0 0.00 0.00 0.00 61 1008.2
20260509184515 88 106 0.0 1.0 0.00 0.00 0.00 59 1008.1
20260509184010 88 82 0.0 2.0 0.00 0.00 0.00 58 1008.4
20260509183506 88 64 0.0 0.0 0.00 0.00 0.00 60 1008.5
20260509183002 87 65 0.0 1.0 0.00 0.00 0.00 62 1008.4
20260509182458 88 82 1.0 1.0 0.00 0.00 0.00 59 1008.3
20260509181955 87 59 0.0 0.0 0.00 0.00 0.00 61 1008.4
20260509181454 87 38 0.0 1.0 0.00 0.00 0.00 62 1008.6
20260509180951 87 59 1.0 1.0 0.00 0.00 0.00 61 1008.6
20260509180446 87 92 0.0 1.0 0.00 0.00 0.00 60 1008.7
20260509175943 86 53 1.0 1.0 0.00 0.00 0.00 64 1008.8
20260509175439 86 96 1.0 1.0 0.00 0.00 0.00 64 1008.8
20260509174936 85 65 1.0 3.0 0.00 0.00 0.00 64 1009.0
20260509174432 85 82 1.0 1.0 0.00 0.00 0.00 66 1008.9
20260509173927 85 85 0.0 2.0 0.00 0.00 0.00 69 1009.0
20260509173421 84 81 0.0 0.0 0.00 0.00 0.00 68 1009.1
20260509172918 84 82 0.0 1.0 0.00 0.00 0.00 66 1009.2
20260509172415 84 226 0.0 1.0 0.00 0.00 0.00 67 1009.3
20260509171911 85 70 0.0 0.0 0.00 0.00 0.00 68 1009.0
20260509171407 84 70 0.0 2.0 0.00 0.00 0.00 69 1009.2
20260509170903 83 68 0.0 2.0 0.00 0.00 0.00 69 1009.2
20260509170359 83 77 1.0 2.0 0.00 0.00 0.00 70 1009.2
20260509165855 82 69 0.0 0.0 0.00 0.00 0.00 71 1009.3
20260509165349 83 58 0.0 2.0 0.00 0.00 0.00 70 1009.1
20260509164845 82 69 0.0 1.0 0.00 0.00 0.00 71 1009.3
20260509164341 82 66 0.0 0.0 0.00 0.00 0.00 73 1009.1
20260509163838 81 68 2.0 3.0 0.00 0.00 0.00 73 1009.1
20260509163334 81 67 0.0 2.0 0.00 0.00 0.00 74 1009.1
20260509162833 80 66 0.0 0.0 0.00 0.00 0.00 75 1009.2
20260509162326 80 66 0.0 1.0 0.00 0.00 0.00 76 1009.4
20260509161823 79 63 0.0 1.0 0.00 0.00 0.00 77 1009.1
20260509161320 78 68 0.0 1.0 0.00 0.00 0.00 78 1009.2
20260509160815 78 56 0.0 1.0 0.00 0.00 0.00 79 1009.3
20260509160311 78 66 0.0 1.0 0.00 0.00 0.00 80 1009.3
20260509155806 77 63 0.0 0.0 0.00 0.00 0.00 81 1009.2
20260509155306 77 74 0.0 3.0 0.00 0.00 0.00 81 1009.1
20260509154759 77 53 0.0 1.0 0.00 0.00 0.00 82 1009.4
20260509154256 76 49 0.0 1.0 0.00 0.00 0.00 82 1009.1
20260509153753 76 74 0.0 1.0 0.00 0.00 0.00 82 1009.2
20260509153249 76 71 0.0 0.0 0.00 0.00 0.00 82 1009.0
20260509152746 76 74 0.0 0.0 0.00 0.00 0.00 83 1008.9
20260509152242 75 72 0.0 0.0 0.00 0.00 0.00 84 1009.1
20260509151740 75 71 0.0 2.0 0.00 0.00 0.00 85 1009.1
20260509151236 74 68 0.0 0.0 0.00 0.00 0.00 87 1009.0
20260509150734 74 71 0.0 0.0 0.00 0.00 0.00 87 1009.2
20260509150232 73 47 0.0 1.0 0.00 0.00 0.00 88 1009.1
20260509145728 73 68 0.0 0.0 0.00 0.00 0.00 88 1009.1
20260509145223 73 71 1.0 1.0 0.00 0.00 0.00 88 1009.2
20260509144720 73 60 0.0 3.0 0.00 0.00 0.00 88 1009.1
20260509144217 73 71 0.0 0.0 0.00 0.00 0.00 88 1009.3
20260509143714 73 72 1.0 2.0 0.00 0.00 0.00 87 1009.1
20260509143211 73 356 0.0 1.0 0.00 0.00 0.00 87 1009.0
20260509142707 73 6 0.0 1.0 0.00 0.00 0.00 87 1009.0
20260509142204 73 70 0.0 1.0 0.00 0.00 0.00 88 1009.0
20260509141659 73 72 0.0 0.0 0.00 0.00 0.00 88 1008.9
20260509141156 73 70 0.0 1.0 0.00 0.00 0.00 89 1009.0
20260509140653 73 68 0.0 1.0 0.00 0.00 0.00 90 1008.9
20260509140151 73 72 0.0 0.0 0.00 0.00 0.00 91 1008.8
20260509135648 73 73 0.0 0.0 0.00 0.00 0.00 92 1008.7
20260509135146 72 77 0.0 1.0 0.00 0.00 0.00 92 1008.7
20260509134642 72 62 1.0 1.0 0.00 0.00 0.00 93 1008.9
20260509134140 72 70 0.0 0.0 0.00 0.00 0.00 93 1008.7
20260509133637 71 68 0.0 0.0 0.00 0.00 0.00 94 1008.5
20260509133134 71 74 0.0 0.0 0.00 0.00 0.00 94 1008.7
20260509132632 71 72 0.0 0.0 0.00 0.00 0.00 94 1008.5
20260509132130 71 74 0.0 0.0 0.00 0.00 0.00 94 1008.8
20260509131626 71 79 0.0 0.0 0.00 0.00 0.00 94 1008.5
20260509131123 71 71 0.0 0.0 0.00 0.00 0.00 95 1008.6
20260509130619 70 71 0.0 0.0 0.00 0.00 0.00 95 1008.6
20260509130116 70 74 0.0 1.0 0.00 0.00 0.00 95 1008.6
20260509125612 70 79 0.0 1.0 0.00 0.00 0.00 95 1008.3
20260509125109 70 87 0.0 1.0 0.00 0.00 0.00 95 1008.4
20260509124605 70 76 0.0 0.0 0.00 0.00 0.00 95 1008.4
20260509124103 70 76 0.0 0.0 0.00 0.00 0.00 95 1008.7
20260509123600 70 76 0.0 0.0 0.00 0.00 0.00 95 1008.6
20260509123057 70 73 0.0 0.0 0.00 0.00 0.00 95 1008.4
20260509122553 70 72 0.0 0.0 0.00 0.00 0.00 95 1008.4
20260509122050 69 78 0.0 0.0 0.00 0.00 0.00 95 1008.4
20260509121546 69 78 0.0 0.0 0.00 0.00 0.00 95 1008.1
20260509121048 69 78 0.0 0.0 0.00 0.00 0.00 95 1008.5
20260509120542 69 81 0.0 0.0 0.00 0.00 0.00 95 1008.2
20260509120041 69 74 0.0 0.0 0.00 0.00 0.00 95 1008.2
20260509115537 69 81 0.0 1.0 0.00 0.00 0.00 95 1008.3
20260509115035 69 75 0.0 0.0 0.00 0.00 0.00 95 1008.2
20260509114533 69 83 0.0 0.0 0.00 0.00 0.00 95 1007.8
20260509114032 69 81 0.0 1.0 0.00 0.00 0.00 94 1008.0
20260509113529 69 83 0.0 0.0 0.00 0.00 0.00 94 1007.7
20260509113027 69 83 0.0 0.0 0.00 0.00 0.00 94 1007.8
20260509112523 69 83 0.0 1.0 0.00 0.00 0.00 94 1007.7
20260509112020 69 79 0.0 1.0 0.00 0.00 0.00 94 1007.6
20260509111517 69 83 0.0 1.0 0.00 0.00 0.00 94 1007.4
20260509111014 69 92 1.0 1.0 0.00 0.00 0.00 94 1007.3
20260509110511 69 88 0.0 1.0 0.00 0.00 0.00 94 1007.5
20260509110008 69 79 0.0 1.0 0.00 0.00 0.00 94 1007.2
20260509105506 69 83 0.0 0.0 0.00 0.00 0.00 94 1007.4
20260509105004 69 77 0.0 0.0 0.00 0.00 0.00 94 1007.3
20260509104500 69 89 0.0 1.0 0.00 0.00 0.00 94 1007.2
20260509103957 69 82 0.0 1.0 0.00 0.00 0.00 94 1007.2
20260509103455 69 79 0.0 1.0 0.00 0.00 0.00 94 1007.1
20260509102953 69 71 0.0 1.0 0.00 0.00 0.00 94 1007.1
20260509102450 69 85 0.0 1.0 0.00 0.00 0.00 94 1006.7